Weather History for Kelso-Longview, WA

Change the Weather History Date:

Monday, October 28, 2013

  Actual Average Record
Temperature  
Mean Temperature 48 °F -  
Max Temperature 60 °F 53 °F 62 °F (2008)
Min Temperature 37 °F 39 °F 32 °F (2007)
Degree Days  
Heating Degree Days 16    
Moisture  
Dew Point 37 °F    
Average Humidity 71    
Maximum Humidity 93    
Minimum Humidity 39    
Precipitation  
Precipitation 0.00 in - - ()
Sea Level Pressure  
Sea Level Pressure 29.91 in    
Wind  
Wind Speed 10 mph (North)    
Max Wind Speed 10 mph    
Max Gust Speed -    
Visibility 10 miles    
Events      
Averages and records for this station are not official NWS values.
T = Trace of Precipitation, MM = Missing Value Source: NWS Daily Summary

Daily Weather History Graph

Daily Weather History Graph

Search for Another Location

Airport:

Trip Planner

Search our weather history database for the weather conditions in past years. The results will help you decide how hot, cold, wet, or windy it might be!

Date:

Astronomy

Oct. 28, 2013 Rise Set
Actual Time 7:47 AM PDT 6:02 PM PDT
Civil Twilight 7:16 AM PDT 6:33 PM PDT
Nautical Twilight 6:40 AM PDT 7:08 PM PDT
Astronomical Twilight 6:06 AM PDT 7:43 PM PDT
Moon 1:26 AM PDT (10/28) 3:04 PM PDT (10/28)
Length of Visible Light 11h 17m
Length of Day
10h 15m
Waning Crescent, 33% of the Moon is Illuminated
Oct 28
Waning Crescent
Nov 3
New
Nov 9
First Quarter
Nov 17
Full
Nov 25
Last Quarter

Hourly Weather History & Observations

Time (PDT) Temp. Dew Point Humidity Pressure Visibility Wind Dir Wind Speed Gust Speed Precip Events Conditions
12:15 AM 42.8 °F 37.4 °F 81% 29.91 in 10.0 mi North - - N/A   Clear
12:35 AM 39.2 °F 37.4 °F 93% 29.91 in 8.0 mi North - - N/A   Clear
12:55 AM 42.8 °F 37.4 °F 81% 29.91 in 10.0 mi North - - N/A   Clear
1:15 AM 41.0 °F 37.4 °F 87% 29.91 in 10.0 mi North - - N/A   Clear
1:35 AM 41.0 °F 37.4 °F 87% 29.91 in 10.0 mi North - - N/A   Clear
1:55 AM 39.2 °F 35.6 °F 87% 29.91 in 9.0 mi North - - N/A   Clear
2:15 AM 39.2 °F 37.4 °F 93% 29.90 in 10.0 mi North - - N/A   Clear
2:35 AM 39.2 °F 37.4 °F 93% 29.91 in 10.0 mi North - - N/A   Clear
2:55 AM 41.0 °F 37.4 °F 87% 29.91 in 10.0 mi North - - N/A   Clear
3:15 AM 42.8 °F 39.2 °F 87% 29.91 in 10.0 mi North - - N/A   Clear
3:35 AM 42.8 °F 37.4 °F 81% 29.91 in 10.0 mi North - - N/A   Clear
3:55 AM 42.8 °F 39.2 °F 87% 29.90 in 10.0 mi North - - N/A   Clear
4:15 AM 42.8 °F 37.4 °F 81% 29.90 in 10.0 mi North - - N/A   Clear
4:35 AM 42.8 °F 37.4 °F 81% 29.90 in 10.0 mi North - - N/A   Clear
4:55 AM 41.0 °F 37.4 °F 87% 29.90 in 10.0 mi North - - N/A   Clear
5:15 AM 39.2 °F 37.4 °F 93% 29.90 in 10.0 mi North - - N/A   Clear
5:35 AM 39.2 °F 35.6 °F 87% 29.91 in 10.0 mi North - - N/A   Clear
5:55 AM 39.2 °F 35.6 °F 87% 29.90 in 10.0 mi North - - N/A   Clear
6:15 AM 39.2 °F 35.6 °F 87% 29.90 in 10.0 mi North - - N/A   Clear
6:35 AM 37.4 °F 35.6 °F 93% 29.90 in 9.0 mi North - - N/A   Clear
6:55 AM 39.2 °F 35.6 °F 87% 29.90 in 10.0 mi North - - N/A   Clear
7:15 AM 37.4 °F 33.8 °F 87% 29.90 in 8.0 mi North - - N/A   Clear
7:35 AM 37.4 °F 35.6 °F 93% 29.90 in 9.0 mi North - - N/A   Clear
7:55 AM 37.4 °F 33.8 °F 87% 29.91 in 9.0 mi North - - N/A   Clear
8:15 AM 37.4 °F 33.8 °F 87% 29.91 in 10.0 mi North - - N/A   Clear
8:35 AM 37.4 °F 33.8 °F 87% 29.92 in 10.0 mi North - - N/A   Clear
8:55 AM 39.2 °F 35.6 °F 87% 29.92 in 9.0 mi North - - N/A   Clear
9:15 AM 42.8 °F 39.2 °F 87% 29.92 in 10.0 mi North - - N/A   Clear
9:35 AM 44.6 °F 39.2 °F 81% 29.92 in 10.0 mi North - - N/A   Clear
9:55 AM 44.6 °F 39.2 °F 81% 29.92 in 10.0 mi North - - N/A   Clear
10:15 AM 46.4 °F 39.2 °F 76% 29.92 in 10.0 mi North - - N/A   Clear
10:35 AM 48.2 °F 39.2 °F 71% 29.92 in 8.0 mi North - - N/A   Clear
10:55 AM 50.0 °F 39.2 °F 66% 29.91 in 10.0 mi North - - N/A   Clear
11:15 AM 51.8 °F 39.2 °F 62% 29.91 in 10.0 mi North - - N/A   Clear
11:35 AM 51.8 °F 39.2 °F 62% 29.91 in 6.0 mi North - - N/A   Clear
11:55 AM 53.6 °F 39.2 °F 58% 29.91 in 10.0 mi North - - N/A   Clear
12:15 PM 55.4 °F 39.2 °F 54% 29.91 in 10.0 mi North - - N/A   Clear
12:35 PM 55.4 °F 39.2 °F 54% 29.90 in 10.0 mi North - - N/A   Clear
12:55 PM 55.4 °F 39.2 °F 54% 29.89 in 10.0 mi North - - N/A   Clear
1:15 PM 57.2 °F 39.2 °F 51% 29.89 in 10.0 mi North - - N/A   Clear
1:35 PM 57.2 °F 37.4 °F 48% 29.88 in 9.0 mi North - - N/A   Clear
1:55 PM 57.2 °F 37.4 °F 48% 29.88 in 10.0 mi North - - N/A   Clear
2:15 PM 59.0 °F 35.6 °F 42% 29.88 in 10.0 mi North - - N/A   Clear
2:35 PM 59.0 °F 35.6 °F 42% 29.87 in 10.0 mi North - - N/A   Clear
2:55 PM 59.0 °F 35.6 °F 42% 29.87 in 10.0 mi North - - N/A   Clear
3:15 PM 60.8 °F 37.4 °F 42% 29.86 in 10.0 mi North - - N/A   Clear
3:35 PM 60.8 °F 37.4 °F 42% 29.87 in 10.0 mi North - - N/A   Clear
3:55 PM 60.8 °F 35.6 °F 39% 29.87 in 10.0 mi North - - N/A   Clear
4:15 PM 60.8 °F 35.6 °F 39% 29.87 in 10.0 mi North - - N/A   Clear
4:35 PM 60.8 °F 35.6 °F 39% 29.87 in 10.0 mi North 10.4 mph - N/A   Clear
4:55 PM 59.0 °F 35.6 °F 42% 29.87 in 10.0 mi North - - N/A   Clear
5:15 PM 59.0 °F 35.6 °F 42% 29.88 in 10.0 mi North - - N/A   Clear
5:35 PM 57.2 °F 35.6 °F 44% 29.88 in 10.0 mi North - - N/A   Clear
5:55 PM 55.4 °F 35.6 °F 47% 29.89 in 10.0 mi North - - N/A   Clear
6:15 PM 55.4 °F 33.8 °F 44% 29.90 in 10.0 mi North - - N/A   Clear
6:35 PM 51.8 °F 35.6 °F 54% 29.90 in 10.0 mi North - - N/A   Clear
6:55 PM 48.2 °F 37.4 °F 66% 29.91 in 10.0 mi North - - N/A   Clear
7:15 PM 48.2 °F 37.4 °F 66% 29.92 in 10.0 mi North - - N/A   Clear
7:35 PM 46.4 °F 37.4 °F 71% 29.92 in 10.0 mi North - - N/A   Clear
7:55 PM 48.2 °F 35.6 °F 62% 29.93 in 10.0 mi North - - N/A   Clear
8:15 PM 46.4 °F 37.4 °F 71% 29.93 in 10.0 mi North - - N/A   Clear
8:35 PM 44.6 °F 37.4 °F 76% 29.93 in 10.0 mi North - - N/A   Clear
8:55 PM 44.6 °F 35.6 °F 71% 29.94 in 10.0 mi North - - N/A   Clear
9:15 PM 42.8 °F 35.6 °F 76% 29.95 in 10.0 mi North - - N/A   Clear
9:35 PM 42.8 °F 37.4 °F 81% 29.95 in 10.0 mi North - - N/A   Clear
9:55 PM 41.0 °F 35.6 °F 81% 29.96 in 10.0 mi North - - N/A   Clear
10:15 PM 39.2 °F 35.6 °F 87% 29.96 in 10.0 mi North - - N/A   Clear
10:35 PM 39.2 °F 35.6 °F 87% 29.97 in 10.0 mi North - - N/A   Clear
10:55 PM 39.2 °F 33.8 °F 81% 29.97 in 10.0 mi North - - N/A   Clear
11:15 PM 37.4 °F 33.8 °F 87% 29.97 in 10.0 mi North - - N/A   Clear
11:35 PM 37.4 °F 33.8 °F 87% 29.97 in 10.0 mi North - - N/A   Clear
11:55 PM 37.4 °F 33.8 °F 87% 29.98 in 10.0 mi North - - N/A   Clear